• In Germany
  • List of Countries
  • For 7 days
  • Water Temperature
  • Satellite Maps
  • Weather Map
  • Weather Widgets
  • user-avatar
    Login

    Hourly Weather Macapa

    Today, 20 August, Monday

    Time Temperature Precipitation Wind Pressure Humidity
    00:00 +25°C° 0 mm 2 mps 761 mmHg 93%
    01:00 +25°C° 0 mm 2 mps 761 mmHg 94%
    02:00 +25°C° 0 mm 2 mps 761 mmHg 95%
    03:00 +25°C° 0 mm 2 mps 760 mmHg 96%
    04:00 +24°C° 0 mm 2 mps 760 mmHg 96%
    05:00 +24°C° 0 mm 2 mps 760 mmHg 97%
    06:00 +24°C° 0 mm 1 mps 761 mmHg 97%
    07:00 +26°C° 0 mm 2 mps 761 mmHg 89%
    08:00 +28°C° 0 mm 2 mps 761 mmHg 81%
    09:00 +30°C° 0 mm 3 mps 761 mmHg 74%
    10:00 +33°C° 0 mm 3 mps 761 mmHg 65%
    11:00 +34°C° 0 mm 3 mps 760 mmHg 55%
    12:00 +36°C° 0 mm 3 mps 760 mmHg 46%
    13:00 +36°C° 0 mm 3 mps 760 mmHg 45%
    14:00 +36°C° 0 mm 3 mps 759 mmHg 44%
    15:00 +37°C° 0 mm 3 mps 759 mmHg 44%
    16:00 +35°C° 0.1 mm 3 mps 759 mmHg 50%
    17:00 +34°C° 0.1 mm 3 mps 759 mmHg 57%
    18:00 +32°C° 0.1 mm 4 mps 759 mmHg 63%
    19:00 +30°C° 0 mm 3 mps 759 mmHg 71%
    20:00 +28°C° 0 mm 3 mps 760 mmHg 78%
    21:00 +27°C° 0 mm 3 mps 760 mmHg 86%
    22:00 +26°C° 0 mm 3 mps 760 mmHg 88%
    23:00 +26°C° 0 mm 3 mps 761 mmHg 91%

    Tomorrow, 21 August, Tuesday

    Time Temperature Precipitation Wind Pressure Humidity
    00:00 +26°C° 0 mm 3 mps 761 mmHg 93%
    01:00 +25°C° 0 mm 3 mps 761 mmHg 94%
    02:00 +25°C° 0 mm 2 mps 760 mmHg 95%
    03:00 +25°C° 0 mm 2 mps 760 mmHg 96%
    04:00 +25°C° 0 mm 2 mps 760 mmHg 96%
    05:00 +25°C° 0 mm 2 mps 760 mmHg 96%
    06:00 +25°C° 0 mm 2 mps 760 mmHg 97%
    07:00 +26°C° 0 mm 2 mps 760 mmHg 89%
    08:00 +28°C° 0 mm 2 mps 760 mmHg 82%
    09:00 +30°C° 0 mm 2 mps 761 mmHg 75%
    10:00 +32°C° 0 mm 2 mps 760 mmHg 65%
    11:00 +35°C° 0 mm 2 mps 760 mmHg 56%
    12:00 +36°C° 0 mm 3 mps 760 mmHg 47%
    13:00 +36°C° 0.3 mm 3 mps 760 mmHg 47%
    14:00 +36°C° 0.3 mm 3 mps 759 mmHg 47%
    15:00 +36°C° 0.3 mm 4 mps 758 mmHg 47%
    16:00 +35°C° 0.3 mm 3 mps 758 mmHg 55%
    17:00 +33°C° 0.3 mm 3 mps 758 mmHg 62%
    18:00 +30°C° 0.3 mm 3 mps 758 mmHg 69%
    19:00 +29°C° 0.6 mm 3 mps 759 mmHg 74%
    20:00 +28°C° 0.6 mm 3 mps 760 mmHg 80%
    21:00 +27°C° 0.6 mm 3 mps 760 mmHg 86%
    22:00 +26°C° 0.3 mm 3 mps 760 mmHg 87%
    23:00 +26°C° 0.3 mm 3 mps 761 mmHg 89%

    Day after tomorrow, 22 August, Wednesday

    Time Temperature Precipitation Wind Pressure Humidity
    00:00 +26°C° 0.3 mm 2 mps 761 mmHg 91%
    01:00 +26°C° 0.3 mm 2 mps 760 mmHg 92%
    02:00 +25°C° 0.3 mm 2 mps 760 mmHg 93%
    03:00 +25°C° 0.3 mm 2 mps 759 mmHg 95%
    04:00 +25°C° 0 mm 2 mps 759 mmHg 95%
    05:00 +25°C° 0 mm 2 mps 759 mmHg 95%
    06:00 +25°C° 0 mm 2 mps 759 mmHg 96%
    07:00 +26°C° 0 mm 2 mps 760 mmHg 89%
    08:00 +28°C° 0 mm 2 mps 760 mmHg 83%
    09:00 +30°C° 0 mm 2 mps 761 mmHg 76%
    10:00 +32°C° 0 mm 2 mps 761 mmHg 66%
    11:00 +35°C° 0 mm 2 mps 760 mmHg 56%
    12:00 +37°C° 0 mm 2 mps 760 mmHg 46%
    13:00 +36°C° 0.4 mm 3 mps 760 mmHg 47%
    14:00 +36°C° 0.4 mm 3 mps 759 mmHg 48%
    15:00 +36°C° 0.4 mm 4 mps 758 mmHg 49%
    16:00 +34°C° 0 mm 3 mps 758 mmHg 55%
    17:00 +33°C° 0 mm 3 mps 758 mmHg 62%
    18:00 +30°C° 0 mm 3 mps 758 mmHg 68%
    19:00 +29°C° 0 mm 3 mps 758 mmHg 73%
    20:00 +28°C° 0 mm 3 mps 759 mmHg 78%
    21:00 +27°C° 0 mm 3 mps 760 mmHg 83%
    22:00 +27°C° 0.1 mm 3 mps 760 mmHg 86%
    23:00 +26°C° 0.1 mm 3 mps 760 mmHg 88%

    23 August, Thursday

    Time Temperature Precipitation Wind Pressure Humidity
    00:00 +26°C° 0.1 mm 3 mps 760 mmHg 91%
    01:00 +25°C° 0 mm 2 mps 760 mmHg 92%
    02:00 +25°C° 0 mm 2 mps 759 mmHg 93%
    03:00 +25°C° 0 mm 2 mps 758 mmHg 94%
    04:00 +25°C° 0 mm 2 mps 758 mmHg 95%
    05:00 +25°C° 0 mm 2 mps 758 mmHg 95%
    06:00 +25°C° 0 mm 2 mps 758 mmHg 95%
    07:00 +27°C° 0 mm 2 mps 759 mmHg 87%
    08:00 +28°C° 0 mm 2 mps 759 mmHg 79%
    09:00 +30°C° 0 mm 2 mps 760 mmHg 71%
    10:00 +32°C° 0 mm 2 mps 760 mmHg 61%
    11:00 +35°C° 0 mm 2 mps 759 mmHg 51%
    12:00 +37°C° 0 mm 2 mps 759 mmHg 41%
    13:00 +37°C° 0 mm 2 mps 758 mmHg 40%
    14:00 +38°C° 0 mm 3 mps 757 mmHg 39%
    15:00 +38°C° 0 mm 3 mps 757 mmHg 38%
    16:00 +36°C° 0 mm 3 mps 757 mmHg 46%
    17:00 +34°C° 0 mm 3 mps 757 mmHg 53%
    18:00 +33°C° 0 mm 3 mps 757 mmHg 61%
    19:00 +30°C° 0 mm 4 mps 758 mmHg 68%
    20:00 +29°C° 0 mm 4 mps 758 mmHg 74%
    21:00 +28°C° 0 mm 4 mps 759 mmHg 80%
    22:00 +27°C° 0 mm 4 mps 759 mmHg 83%
    23:00 +27°C° 0 mm 3 mps 759 mmHg 86%

    24 August, Friday

    Time Temperature Precipitation Wind Pressure Humidity
    00:00 +26°C° 0 mm 3 mps 759 mmHg 89%
    01:00 +26°C° 0 mm 3 mps 759 mmHg 90%
    02:00 +26°C° 0 mm 3 mps 758 mmHg 92%
    03:00 +25°C° 0 mm 2 mps 758 mmHg 93%
    04:00 +25°C° 0 mm 2 mps 758 mmHg 94%
    05:00 +25°C° 0 mm 2 mps 758 mmHg 94%
    06:00 +25°C° 0 mm 2 mps 758 mmHg 95%
    07:00 +27°C° 0 mm 2 mps 759 mmHg 87%
    08:00 +29°C° 0 mm 2 mps 759 mmHg 80%
    09:00 +30°C° 0 mm 2 mps 760 mmHg 72%
    10:00 +32°C° 0 mm 2 mps 759 mmHg 63%
    11:00 +35°C° 0 mm 2 mps 759 mmHg 54%
    12:00 +37°C° 0 mm 2 mps 759 mmHg 45%
    13:00 +37°C° 0 mm 3 mps 758 mmHg 44%
    14:00 +37°C° 0 mm 3 mps 757 mmHg 43%
    15:00 +37°C° 0 mm 3 mps 757 mmHg 43%
    16:00 +36°C° 0 mm 3 mps 757 mmHg 49%
    17:00 +34°C° 0 mm 3 mps 757 mmHg 56%
    18:00 +33°C° 0 mm 3 mps 757 mmHg 63%
    19:00 +30°C° 0 mm 3 mps 758 mmHg 69%
    20:00 +29°C° 0 mm 4 mps 759 mmHg 76%
    21:00 +28°C° 0 mm 4 mps 759 mmHg 82%
    22:00 +27°C° 0 mm 3 mps 760 mmHg 84%
    23:00 +27°C° 0 mm 3 mps 760 mmHg 86%

    25 August, Saturday

    Time Temperature Precipitation Wind Pressure Humidity
    00:00 +26°C° 0 mm 3 mps 760 mmHg 88%
    01:00 +26°C° 0 mm 3 mps 760 mmHg 90%
    02:00 +26°C° 0 mm 3 mps 759 mmHg 91%
    03:00 +25°C° 0 mm 2 mps 759 mmHg 93%
    04:00 +25°C° 0 mm 2 mps 759 mmHg 93%
    05:00 +25°C° 0 mm 2 mps 759 mmHg 94%
    06:00 +25°C° 0 mm 2 mps 760 mmHg 95%
    07:00 +27°C° 0 mm 2 mps 760 mmHg 86%
    08:00 +29°C° 0 mm 2 mps 760 mmHg 78%
    09:00 +31°C° 0 mm 2 mps 761 mmHg 70%
    10:00 +32°C° 0 mm 2 mps 760 mmHg 62%
    11:00 +35°C° 0 mm 2 mps 760 mmHg 54%
    12:00 +37°C° 0 mm 2 mps 760 mmHg 45%
    13:00 +37°C° 0 mm 2 mps 759 mmHg 44%
    14:00 +37°C° 0 mm 3 mps 758 mmHg 42%
    15:00 +37°C° 0 mm 3 mps 757 mmHg 41%
    16:00 +36°C° 0 mm 3 mps 757 mmHg 47%
    17:00 +35°C° 0 mm 3 mps 758 mmHg 53%
    18:00 +33°C° 0 mm 3 mps 758 mmHg 59%
    19:00 +31°C° 0 mm 3 mps 758 mmHg 66%
    20:00 +29°C° 0 mm 3 mps 759 mmHg 72%
    21:00 +28°C° 0 mm 3 mps 760 mmHg 78%
    22:00 +28°C° 0 mm 3 mps 760 mmHg 81%
    23:00 +27°C° 0 mm 3 mps 760 mmHg 85%
    Show more